Terminal Aerodrome Forecast
Issued by NWS

Home | Current Version | Previous Version | Text Only | Print | Product List | Glossary On
Versions: 1 2 3 4 5 6 7 8 9 10 11 12 13 14 15
000
FTUS43 KCYS 181700
TAFBFF
TAF
KBFF 181720Z 1818/1918 13006KT P6SM SKC
     FM181900 14010KT P6SM SCT250
     FM190100 13007KT P6SM SKC=

USA.gov is the U.S. government's official web portal to all federal, state and local government web resources and services.